This is the latest recevied weather packets stored in our database for station/object KG5APU. If no packets are shown the sender has not sent any weather packets the latest 10 day(s).
| Time | Temp. | Humidity | Pressure | Rain* | Wind** | Luminosity | Snow |
|---|---|---|---|---|---|---|---|
| 1777940257 | 25.56° C | 65% | 1007.4 hPa | 0 mm | - | 48 W/m² | - |
| 1777939657 | 25.56° C | 63% | 1007.4 hPa | 0 mm | - | 88 W/m² | - |
| 1777939056 | 25.56° C | 63% | 1007.1 hPa | 0 mm | - | 116 W/m² | - |
| 1777938456 | 25.56° C | 63% | 1007.4 hPa | 0 mm | - | 115 W/m² | - |
| 1777937855 | 25.56° C | 63% | 1007.2 hPa | 0 mm | - | 96 W/m² | - |
| 1777937254 | 25.56° C | 62% | 1007.5 hPa | 0 mm | - | 112 W/m² | - |
| 1777936654 | 26.11° C | 62% | 1007.5 hPa | 0 mm | - | 116 W/m² | - |
| 1777936052 | 26.67° C | 61% | 1007.6 hPa | 0 mm | - | 181 W/m² | - |
| 1777935449 | 26.67° C | 61% | 1007.8 hPa | 0 mm | - | 248 W/m² | - |
| 1777934848 | 26.67° C | 60% | 1007.9 hPa | 0 mm | - | 262 W/m² | - |
| 1777934248 | 26.67° C | 60% | 1007.7 hPa | 0 mm | - | 309 W/m² | - |
| 1777933646 | 27.22° C | 59% | 1007.8 hPa | 0 mm | - | 271 W/m² | - |
| 1777933046 | 27.22° C | 59% | 1007.9 hPa | 0 mm | - | 366 W/m² | - |
| 1777932446 | 27.22° C | 59% | 1008.1 hPa | 0 mm | - | 388 W/m² | - |
| 1777931840 | 27.22° C | 57% | 1008.3 hPa | 0 mm | - | 383 W/m² | - |
| 1777931239 | 26.67° C | 59% | 1008.3 hPa | 0 mm | - | 523 W/m² | - |
| 1777930638 | 26.67° C | 58% | 1008.5 hPa | 0 mm | - | 416 W/m² | - |
| 1777930037 | 27.22° C | 56% | 1008.7 hPa | 0 mm | - | 578 W/m² | - |
| 1777929437 | 27.22° C | 58% | 1008.9 hPa | 0 mm | - | 563 W/m² | - |
| 1777928836 | 27.22° C | 56% | 1008.9 hPa | 0 mm | - | 530 W/m² | - |
| 1777928236 | 27.22° C | 56% | 1009.2 hPa | 0 mm | - | 579 W/m² | - |
| 1777927632 | 27.22° C | 53% | 1009.3 hPa | 0 mm | - | 531 W/m² | - |
| 1777927029 | 27.22° C | 55% | 1009.5 hPa | 0 mm | - | 680 W/m² | - |
| 1777926426 | 27.22° C | 54% | 1009.8 hPa | 0 mm | - | 715 W/m² | - |
| 1777925820 | 27.22° C | 54% | 1010.1 hPa | 0 mm | - | 754 W/m² | - |
* Rain latest hour (hover to see other rain measurements)
** Current wind speed in m/s (hover to see current wind gust speed)